Location: Zagreb
(45.8000°N, 16.0000°E)
Time: 19:45:51
(UTC+01:00)

deb Explorer IX - Pass Details

Date: 07 October 2020
Orbit: 537 x 1106 km, 38.8° (Epoch: 30 October)

Event Time Altitude Azimuth Distance (km) Brightness Sun altitude
Rises 13:37:22 0° 208° (SSW) 3,759 ? 37.0°
Reaches altitude 10° 13:41:08 10° 190° (S) 2,717 ? 36.8°
Maximum altitude 13:45:09 17° 152° (SSE) 2,127 ? 36.6°
Drops below altitude 10° 13:48:52 10° 113° (ESE) 2,477 ? 36.4°
Sets 13:52:04 0° 93° (E) 3,294 ? 36.2°
